Regional Weather Roundup
Issued by NWS Boston, MA

Home | Current Version | Previous Version | Text Only | Print | Product List | Glossary On
Versions: 1 2 3 4 5 6 7 8 9 10 11 12 13 14 15 16 17 18 19 20 21 22 23 24 25 26 27 28 29 30 31 32 33 34 35 36 37 38 39 40 41 42 43 44 45 46 47 48 49 50
000
ASUS41 KBOX 291110
RWRBOX

REGIONAL WEATHER ROUNDUP
NATIONAL WEATHER SERVICE TAUNTON MA
700 AM EDT SAT JUL 29 2017

NOTE:  "FAIR" INDICATES FEW OR NO CLOUDS BELOW 12,000 FEET WITH NO
SIGNIFICANT WEATHER AND/OR OBSTRUCTIONS TO VISIBILITY.

MAZALL-291200-
EASTERN MASSACHUSETTS

CITY           SKY/WX    TMP DP  RH WIND       PRES   REMARKS
BOSTON         CLOUDY    65  54  67 NE15      29.88R
BEVERLY        CLOUDY    63  54  72 N8G17     29.88R
LAWRENCE       CLOUDY    63  51  65 NE8       29.91R
BEDFORD        CLOUDY    62  49  62 N5        29.88R
BLUE HILL        N/A     62  53  72 NE14G22   29.87R
NORWOOD        CLOUDY    66  54  65 NE9       29.87R
MARSHFIELD     CLOUDY    66  59  77 VRB5      29.87R
PLYMOUTH       CLOUDY    64  57  78 NE13      29.85R
TAUNTON        CLOUDY    65  53  65 VRB3      29.85R
NEW BEDFORD    CLOUDY    65  57  75 N10G22    29.82R
$$

MAZALL-291200-
CAPE COD AND THE ISLANDS

CITY           SKY/WX    TMP DP  RH WIND       PRES   REMARKS
FALMOUTH       CLOUDY    66  64  94 NE10      29.83R
HYANNIS        CLOUDY    68  66  93 N8        29.81R
CHATHAM        CLOUDY    67  66  97 N6        29.83R
PROVINCETOWN   RAIN      62  60  93 NE14      29.84S FOG
NANTUCKET      LGT RAIN  67  67 100 NE8       29.79S FOG
MARTHAS VNYRD  CLOUDY    69  66  90 NE8       29.80R
$$

MAZALL-291200-
CENTRAL AND WESTERN MASSACHUSETTS

CITY           SKY/WX    TMP DP  RH WIND       PRES   REMARKS
WORCESTER      CLOUDY    59  48  67 NE10      29.90R
FITCHBURG      CLOUDY    62  52  69 NW5       29.92R
ORANGE         CLOUDY    56  53  90 NW7       29.91R
SPRINGFIELD    CLOUDY    61  52  72 NE8       29.87S
WESTFIELD      CLOUDY    61  53  75 N7        29.88S
NORTH ADAMS    CLOUDY    53  52  96 CALM      29.92R
PITTSFIELD     CLOUDY    57  47  69 CALM      29.90R
$$

RIZALL-291200-
RHODE ISLAND

CITY           SKY/WX    TMP DP  RH WIND       PRES   REMARKS
PROVIDENCE     CLOUDY    66  54  65 NE18      29.85S
NEWPORT        CLOUDY    66  57  72 NE18G32   29.82S
BLOCK ISLAND   CLOUDY    66  62  87 NE18G24   29.79F
WESTERLY       CLOUDY    67  57  70 N15G24    29.81F
$$

CTZALL-291200-
CONNECTICUT

CITY           SKY/WX    TMP DP  RH WIND       PRES   REMARKS
BRADLEY INTL   CLOUDY    62  52  69 N8        29.87S
HARTFORD       CLOUDY    65  53  65 N13       29.85S
BRIDGEPORT     LGT RAIN  68  53  58 NE17      29.80R
DANBURY        CLOUDY    66  50  56 NE9       29.84R
GROTON         CLOUDY    68  55  63 NE18      29.79F
NEW HAVEN      CLOUDY    67  53  61 N15       29.80F
CHESTER        CLOUDY    66  55  68 NE13      29.82F
MERIDEN        CLOUDY    64  52  64 NE7       29.83F
WILLIMANTIC    CLOUDY    65  54  67 NE13      29.85R
OXFORD         PTSUNNY   63  46  55 NE15G23   29.83S
$$

MEZ002-015-021-024-NHZ003-005-008-011-012-014-VTZ005-008-291200-
NORTHERN NEW ENGLAND

CITY           SKY/WX    TMP DP  RH WIND       PRES   REMARKS
PORTLAND ME    PTSUNNY   61  48  62 N8        29.93R
BANGOR ME      MOSUNNY   57  47  69 N7        29.95R
CONCORD NH     CLOUDY    58  54  86 NW5       29.93R
MANCHESTER NH  CLOUDY    61  51  70 NW6       29.90R
NASHUA NH      CLOUDY    60  53  77 NW6       29.92R
PORTSMOUTH NH  CLOUDY    62  49  63 N9        29.90R
JAFFREY NH     CLOUDY    55  53  93 CALM      29.94R
KEENE NH       CLOUDY    53  52  96 CALM      29.94R
BURLINGTON VT  CLOUDY    55  53  93 CALM      29.95R
MT. WASHINGTON MOSUNNY   39  30  70 VRB5        N/A
$$

NYZ052-076-291200-
EASTERN NEW YORK

CITY           SKY/WX    TMP DP  RH WIND       PRES   REMARKS
ALBANY         CLOUDY    59  53  80 N5        29.92R
NEW YORK CITY  CLOUDY    70  55  59 NE18G24   29.76S
$$

ANZALL-291200-
MARINE OBSERVATIONS

STATION/POSITION TIME  TEMP    WIND        PRES    VSBY  WAVE
                       AIR SEA DIR/SP/G                  HT/PER
                 (UTC) (F)     (DEG/KT/KT) (MB)    (MI)  (FT/S)
BOSTON BUOY      1050   64 63   30/ 17/ 19 1010.7R         4/ 4
BUZZARDS BAY     1000   67      20/ 20/ 22 1008.8F
NANTUCKET SOUND  1050      69              1009.0R         1
MASS BAY-STELLWA 1004   64 61   40/ 17/ 21 1010.5R         4/ 5
ISLE OF SHOALS   1000   63      30/ 18/ 20 1011.7R
S OF BLOCK IS    NOT AVBL
$$

......................KEY.........................
  SKY/WX - SKY CONDITION/PRESENT WEATHER
  TMP    - TEMPERATURE IN FAHRENHEIT
  DWPT   - DEWPOINT IN FAHRENHEIT
  RH     - RELATIVE HUMIDITY IN PERCENT
  WIND   - DIRECTION AND SPEED IN MPH
  PRES   - MEAN SEA LEVEL PRESSURE IN INCHES OF HG
  WCI    - WIND CHILL INDEX
  VSB    - VISIBILITY IN MILES
  HX     - HEAT INDEX
  TC     - TEMPERATURE IN CELSIUS
  VRB    - VARIABLE WIND DIRECTION
  N/A    - NOT AVAILABLE



USA.gov is the U.S. government's official web portal to all federal, state and local government web resources and services.